Regional Weather Roundup
Issued by NWS Columbia, SC

Home | Current Version | Previous Version | Text Only | Print | Product List | Glossary On
Versions: 1 2 3 4 5 6 7 8 9 10 11 12 13 14 15 16 17 18 19 20 21 22 23 24 25 26 27 28 29 30 31 32 33 34 35 36 37 38 39 40 41 42 43 44 45 46 47 48 49 50
944
ASUS42 KCAE 270010
RWRCAE
REGIONAL WEATHER ROUNDUP
NATIONAL WEATHER SERVICE COLUMBIA SC
800 PM EDT MON SEP 26 2016

NOTE: "FAIR" INDICATES FEW OR NO CLOUDS BELOW 12,000 FEET WITH NO
SIGNIFICANT WEATHER AND/OR OBSTRUCTIONS TO VISIBILITY.

NOT ALL STATIONS ARE QUALITY CONTROLLED BY THE NATIONAL
WEATHER SERVICE. USE DATA WITH CAUTION...ESPECIALLY
DEWPOINT OBSERVATIONS.

SCZ001>056-GAZ040-063>065-077-270100-
...UPSTATE SOUTH CAROLINA...

CITY           SKY/WX    TMP DP  RH WIND       PRES   REMARKS
ANDERSON       PTCLDY    78  64  61 SE5       30.02R
6HR MIN TEMP:  78; 6HR MAX TEMP:  89;

LIBERTY        CLOUDY    76  62  63 N16G26    30.05R
6HR MIN TEMP:  76; 6HR MAX TEMP:  89;

SPARTANBURG    CLEAR     79  64  61 CALM      30.01S
CLEMSON        CLOUDY    79  62  56 N12G25    30.06R
6HR MIN TEMP:  79; 6HR MAX TEMP:  89;

GREENVILLE     MOCLDY    82  65  56 SW5       30.03R
6HR MIN TEMP:  82; 6HR MAX TEMP:  88;

GREENWOOD      PTCLDY    77  67  71 CALM      30.04R
6HR MIN TEMP:  77; 6HR MAX TEMP:  88;

GREER          PTCLDY    79  65  62 S6        30.01R
6HR MIN TEMP:  78; 6HR MAX TEMP:  87;

ROCK HILL      PTCLDY    77  68  73 S3        30.03S
6HR MIN TEMP:  77; 6HR MAX TEMP:  84; 6HR PCP: TRACE;

CHESTER        MOCLDY    77  66  69 S3        30.03S
LAURENS        CLEAR     79  68  69 S8        30.02S


...CENTRAL SOUTH CAROLINA...

CITY           SKY/WX    TMP DP  RH WIND       PRES   REMARKS
COLUMBIA APT   PTCLDY    78  70  76 S5        30.02R
6HR MIN TEMP:  78; 6HR MAX TEMP:  87;

COLUMBIA OWENS CLEAR     79  71  76 S5        30.03R
6HR MIN TEMP:  79; 6HR MAX TEMP:  87;

MCENTIRE ANGB  MOCLDY    76  71  86 SE3       30.04R
6HR MIN TEMP:  76; 6HR MAX TEMP:  86;

ORANGEBURG     CLOUDY    76  72  87 CALM      30.03R
6HR MIN TEMP:  76; 6HR MAX TEMP:  83; 6HR PCP: TRACE;

SUMTER SHAW    CLOUDY    74  68  82 SE3       30.01R
6HR MIN TEMP:  74; 6HR MAX TEMP:  85; 6HR PCP: TRACE;

NEWBERRY       CLEAR     77  70  78 S5        30.06R
MANNING        FAIR      70  70 100 CALM      30.02S
LANCASTER      CLEAR     75  70  83 SE3       30.03S
WINNSBORO      CLEAR     75  70  83 S6        30.03R


...EASTERN AND COASTAL SOUTH CAROLINA...

CITY           SKY/WX    TMP DP  RH WIND       PRES   REMARKS
MYRTLE BEACH   PTCLDY    79  64  61 SE9       30.04S
N MYRTLE BCH   MOCLDY    78  70  76 E8        30.03R
6HR MIN TEMP:  78; 6HR MAX TEMP:  83;

CONWAY         FAIR      73  70  88 CALM      30.04R
MARION         FAIR      73  70  88 SE5       30.04R
HARTSVILLE     FAIR      73  70  88 CALM      30.03R
FLORENCE       CLOUDY    77  72  84 SE6       30.04R
6HR MIN TEMP:  77; 6HR MAX TEMP:  85;

DARLINGTON     MOCLDY    76  72  87 S3        30.04R
6HR MIN TEMP:  76; 6HR MAX TEMP:  84;

CHARLESTON APT CLOUDY    77  72  84 CALM      30.02R
6HR MIN TEMP:  73; 6HR MAX TEMP:  77; 6HR PCP:  0.76;

MOUNT PLEASANT FAIR      75  73  94 CALM      30.02R
WALTERBORO     CLOUDY    77  77 100 CALM      30.03S
BEAUFORT       CLOUDY    75  69  81 CALM      30.03R
6HR MIN TEMP:  75; 6HR MAX TEMP:  81;



...EASTERN GEORGIA...

CITY           SKY/WX    TMP DP  RH WIND       PRES   REMARKS
AUGUSTA BUSH F PTCLDY    73  68  84 S3        30.03R
6HR MIN TEMP:  73; 6HR MAX TEMP:  87; 6HR PCP: TRACE;

AUGUSTA DANIEL PTCLDY    78  67  68 S6        30.04S
6HR MIN TEMP:  78; 6HR MAX TEMP:  88; 6HR PCP: TRACE;

THOMSON        MOCLDY    78  72  79 CALM      30.07R
6HR MIN TEMP:  78; 6HR MAX TEMP:  91;

WASHINGTON     FAIR      81  70  69 S6        30.03R
CLAXTON        FAIR      77  73  87 E3        30.01S
6HR MIN TEMP:  76; 6HR MAX TEMP:  85;

STATESBORO     CLOUDY    76  73  88 E3        30.01F
6HR MIN TEMP:  76; 6HR MAX TEMP:  85;

SAVANNAH       CLOUDY    77  69  76 NE3       30.01S
6HR MIN TEMP:  77; 6HR MAX TEMP:  82;



...SOUTHERN NORTH CAROLINA...

CITY           SKY/WX    TMP DP  RH WIND       PRES   REMARKS
CHARLOTTE      MOCLDY    75  68  78 S6        30.03R
6HR MIN TEMP:  75; 6HR MAX TEMP:  84; 6HR PCP: TRACE;

MONROE         MOCLDY    77  67  71 VRB3      30.02S
6HR MIN TEMP:  77; 6HR MAX TEMP:  84;

WADESBORO      CLEAR     75  70  85 CALM      30.03R
RUTHERFORDTON  CLOUDY    70  70 100 NE3       30.06R
ASHEVILLE      LGT RAIN  66  63  90 CALM      30.12F
6HR MIN TEMP:  65; 6HR MAX TEMP:  83; 6HR PCP:  0.42;


$$




USA.gov is the U.S. government's official web portal to all federal, state and local government web resources and services.